Home > Weather > Bridgewater > Past weeks

Flag for U.S.A. Weather for the Past 2 Weeks in Bridgewater, Massachusetts, U.S.A.

Now
32 °F

Clear.


Feels Like: 29 °F
Forecast: 23 / 36 °F
Wind: 3 mph from Northeast

Location: Taunton Municipal Airport

Current Time: Feb 7, 2016 at 10:10:01 PM

Latest Report: Feb 7, 2016 at 8:52 PM


Visibility: 10 mi

Pressure: 30.05 "Hg

Humidity: 82%

Dew point: 27 °F

Location of BridgewaterLocation

Historic Weather in Bridgewater — Graph

°F

Bridgewater Temperature Yesterday

Maximum temperature yesterday: 35 °F (at 12:52 PM)
Minimum temperature yesterday: 11 °F (at 6:52 AM)
Average temperature yesterday: 26 °F

High & Low Weather Summary for the Past Weeks

 TemperatureHumidityPressure
High65 °F (Feb 1, 1:52 PM)96% (Feb 6, 8:52 AM)30.40 "Hg (Feb 6, 8:52 AM)
Low11 °F (Feb 6, 6:52 AM)28% (Jan 24, 2:52 PM)29.36 "Hg (Jan 29, 12:52 PM)
Average37 °F70%29.99 "Hg
* Reported Jan 23 8:04 PM — Feb 7 8:52 PM, Bridgewater, Weather by CustomWeather, © 2016

Note: Actual official high and low records may vary slightly from our data, if they occured in-between our weather recording intervals... More about our weather records

Advertising

Bridgewater Weather History for the Previous 24 Hours

 ConditionsComfort  
Time TempWeatherWind HumidityBarometerVisibility
8:52 PM
Sun, Feb 7
32 °FClear.3 mph82%30.05 "Hg10 mi
7:52 PM34 °FClear.3 mph79%30.09 "Hg10 mi
6:52 PM36 °FClear.3 mph73%30.09 "Hg10 mi
5:52 PM37 °FClear.3 mph65%30.10 "Hg10 mi
4:52 PM40 °FSunny.3 mph53%30.09 "Hg10 mi
3:52 PM43 °FSunny.3 mph60%30.09 "Hg10 mi
2:52 PM44 °FSunny.7 mph58%30.11 "Hg10 mi
1:52 PM44 °FQuite cool.N/A47%30.13 "Hg10 mi
12:52 PM44 °FQuite cool.3 mph51%30.15 "Hg10 mi
10:52 AM39 °FChilly.No wind60%30.16 "Hg10 mi
9:52 AM38 °FChilly.3 mph60%30.16 "Hg10 mi
8:52 AM33 °FChilly.No wind78%30.18 "Hg10 mi
7:52 AM24 °FCold.3 mph88%30.18 "Hg7 mi
6:52 AM21 °FCold.No wind88%30.17 "Hg7 mi
5:52 AM25 °FChilly.3 mph85%30.16 "Hg10 mi
4:52 AM31 °FChilly.6 mph79%30.18 "Hg10 mi
3:52 AM28 °FChilly.3 mph85%30.19 "Hg10 mi
2:52 AM23 °FCold.3 mph88%30.18 "Hg7 mi
1:58 AM27 °FIce fog.No wind89%30.20 "Hg2 mi
12:52 AM32 °FChilly.3 mph82%30.22 "Hg10 mi
11:52 PM
Sat, Feb 6
32 °FChilly.3 mph79%30.24 "Hg10 mi
10:52 PM32 °FChilly.5 mph79%30.26 "Hg10 mi
Weather by CustomWeather, © 2016

See weather overviewHow to use our weather pages